TimeEST,TemperatureF,Dew PointF,Humidity,Sea Level PressureIn,VisibilityMPH,Wind Direction,Wind SpeedMPH,Gust SpeedMPH,PrecipitationIn,Events,Conditions,WindDirDegrees,DateUTC
12:54 AM,33.1,28.0,82,30.03,-9999.0,North,-9999.0,-,N/A,,Unknown,0,2012-12-08 05:54:00
1:54 AM,33.1,28.0,82,30.02,-9999.0,North,-9999.0,-,N/A,,Unknown,0,2012-12-08 06:54:00
2:54 AM,33.1,28.0,82,30.02,-9999.0,North,-9999.0,-,N/A,,Unknown,0,2012-12-08 07:54:00
3:54 AM,32.0,28.0,85,30.02,-9999.0,North,-9999.0,-,N/A,,Unknown,0,2012-12-08 08:54:00
4:54 AM,32.0,27.0,82,30.01,-9999.0,North,-9999.0,-,N/A,,Unknown,0,2012-12-08 09:54:00
5:54 AM,30.9,27.0,85,30.01,-9999.0,North,-9999.0,-,N/A,,Unknown,0,2012-12-08 10:54:00
6:54 AM,30.9,28.0,89,30.00,-9999.0,North,-9999.0,-,N/A,,Unknown,0,2012-12-08 11:54:00
7:54 AM,32.0,28.0,85,29.99,-9999.0,North,-9999.0,-,N/A,,Unknown,0,2012-12-08 12:54:00
8:54 AM,32.0,28.9,88,29.98,-9999.0,North,-9999.0,-,N/A,,Unknown,0,2012-12-08 13:54:00
9:54 AM,33.1,30.0,89,29.96,-9999.0,North,-9999.0,-,0.01,,Unknown,0,2012-12-08 14:54:00
10:54 AM,33.1,30.9,92,29.94,-9999.0,North,-9999.0,-,N/A,,Unknown,0,2012-12-08 15:54:00
11:54 AM,34.0,32.0,92,29.91,-9999.0,North,-9999.0,-,0.01,,Unknown,0,2012-12-08 16:54:00
12:54 PM,36.0,33.1,89,29.88,-9999.0,North,-9999.0,-,N/A,,Unknown,0,2012-12-08 17:54:00
1:54 PM,36.0,33.1,89,29.85,-9999.0,North,-9999.0,-,N/A,,Unknown,0,2012-12-08 18:54:00
2:54 PM,36.0,33.1,89,29.84,-9999.0,North,-9999.0,-,N/A,,Unknown,0,2012-12-08 19:54:00
3:54 PM,36.0,34.0,93,29.83,-9999.0,North,-9999.0,-,N/A,,Unknown,0,2012-12-08 20:54:00
4:54 PM,36.0,34.0,93,29.83,-9999.0,North,-9999.0,-,N/A,,Unknown,0,2012-12-08 21:54:00
5:54 PM,37.0,34.0,89,29.84,-9999.0,North,-9999.0,-,N/A,,Unknown,0,2012-12-08 22:54:00
6:54 PM,37.9,36.0,93,29.83,-9999.0,North,-9999.0,-,N/A,,Unknown,0,2012-12-08 23:54:00
7:54 PM,39.0,36.0,89,29.86,-9999.0,North,-9999.0,-,N/A,,Unknown,0,2012-12-09 00:54:00
8:54 PM,39.0,37.0,93,29.86,-9999.0,North,-9999.0,-,N/A,,Unknown,0,2012-12-09 01:54:00
9:54 PM,39.0,36.0,89,29.88,-9999.0,North,-9999.0,-,N/A,,Unknown,0,2012-12-09 02:54:00
10:54 PM,37.9,35.1,89,29.89,-9999.0,North,-9999.0,-,N/A,,Unknown,0,2012-12-09 03:54:00
11:54 PM,37.9,36.0,93,29.92,-9999.0,North,-9999.0,-,N/A,,Unknown,0,2012-12-09 04:54:00